FW3093 Weather Reports


Display with metric or nautical units.
time (UTC)temp
F
wind
direction
speed
MPH
gust
MPH
rain 1hr
in
rain 24hr
in
rain mn
in
humidity
%
barometer
mb
20200408222055 59 18 3.0 8.0 0.00 0.15 0.15 66 1001.0
20200408221555 60 84 2.0 8.0 0.00 0.15 0.15 66 1000.8
20200408221055 60 32 3.0 10.0 0.00 0.15 0.15 66 1000.8
20200408220553 60 27 3.0 10.0 0.00 0.15 0.15 65 1000.8
20200408220055 60 61 2.0 6.0 0.00 0.15 0.15 66 1000.8
20200408215555 60 31 3.0 8.0 0.00 0.15 0.15 66 1000.8
20200408215055 59 5 3.0 9.0 0.00 0.15 0.15 66 1000.8
20200408214555 60 350 3.0 10.0 0.00 0.15 0.15 66 1000.9
20200408214053 60 53 4.0 10.0 0.00 0.15 0.15 66 1001.0
20200408213555 60 11 5.0 11.0 0.00 0.15 0.15 66 1001.0
20200408213055 60 46 5.0 11.0 0.00 0.15 0.15 65 1001.0
20200408212555 60 355 4.0 11.0 0.00 0.15 0.15 65 1000.9
20200408212055 60 26 3.0 8.0 0.00 0.15 0.15 65 1000.9
20200408211554 60 11 4.0 10.0 0.00 0.15 0.15 67 1000.9
20200408211054 60 21 4.0 10.0 0.00 0.15 0.15 66 1000.8
20200408210555 60 38 3.0 8.0 0.00 0.15 0.15 66 1000.8
20200408210053 60 346 3.0 9.0 0.00 0.15 0.15 67 1000.8
20200408205555 60 336 4.0 14.0 0.00 0.15 0.15 66 1000.8
20200408205054 59 13 4.0 14.0 0.00 0.15 0.15 68 1000.7
20200408204554 59 19 4.0 11.0 0.00 0.15 0.15 68 1000.6
20200408204055 59 355 3.0 11.0 0.00 0.15 0.15 69 1000.7
20200408203554 59 26 3.0 9.0 0.00 0.15 0.15 69 1000.7
20200408203055 59 42 3.0 8.0 0.00 0.15 0.15 70 1000.6
20200408202555 58 17 4.0 9.0 0.00 0.15 0.15 69 1000.6
20200408202051 58 337 4.0 10.0 0.00 0.15 0.15 69 1000.7
20200408201553 58 322 4.0 10.0 0.00 0.15 0.15 70 1000.6
20200408201052 58 350 4.0 12.0 0.00 0.15 0.15 68 1000.6
20200408200551 58 344 4.0 12.0 0.00 0.15 0.15 69 1000.6
20200408200051 58 343 4.0 10.0 0.00 0.15 0.15 69 1000.5
20200408195552 58 33 4.0 9.0 0.00 0.15 0.15 69 1000.3
20200408195052 58 24 4.0 10.0 0.00 0.15 0.15 71 1000.3
20200408194551 58 44 3.0 10.0 0.00 0.15 0.15 71 1000.5
20200408194052 57 30 2.0 12.0 0.00 0.15 0.15 73 1000.4
20200408193553 57 335 3.0 12.0 0.00 0.15 0.15 72 1000.5
20200408193052 57 355 2.0 8.0 0.00 0.15 0.15 72 1000.6
20200408192551 57 22 3.0 8.0 0.00 0.15 0.15 72 1000.7
20200408192049 57 304 4.0 9.0 0.00 0.15 0.15 72 1000.5
20200408191550 57 13 4.0 9.0 0.00 0.15 0.15 71 1000.5
20200408191049 57 355 4.0 9.0 0.00 0.15 0.15 71 1000.4
20200408190550 57 329 4.0 9.0 0.00 0.15 0.15 71 1000.4
20200408190052 57 347 3.0 8.0 0.00 0.15 0.15 72 1000.4
20200408185548 57 12 4.0 9.0 0.00 0.15 0.15 74 1000.3
20200408185049 57 65 4.0 10.0 0.00 0.15 0.15 73 1000.2
20200408184548 57 336 4.0 10.0 0.00 0.15 0.15 73 1000.3
20200408184048 58 29 4.0 10.0 0.00 0.15 0.15 70 1000.3
20200408183548 58 347 4.0 10.0 0.00 0.15 0.15 71 1000.2
20200408183047 58 57 5.0 12.0 0.00 0.15 0.15 73 1000.2
20200408182548 58 36 4.0 12.0 0.00 0.15 0.15 73 1000.2
20200408182048 58 13 4.0 10.0 0.00 0.15 0.15 74 1000.1
20200408181545 57 46 4.0 12.0 0.00 0.15 0.15 75 1000.2
20200408181046 57 349 4.0 12.0 0.00 0.15 0.15 74 1000.3
20200408180546 57 0 4.0 11.0 0.00 0.15 0.15 74 1000.2
20200408180045 57 49 4.0 11.0 0.00 0.15 0.15 75 1000.2
20200408175546 56 15 4.0 12.0 0.00 0.15 0.15 75 1000.2
20200408175045 57 17 3.0 12.0 0.00 0.15 0.15 74 1000.1
20200408174548 56 32 4.0 9.0 0.00 0.15 0.15 76 1000.2
20200408174047 56 44 5.0 12.0 0.00 0.15 0.15 74 1000.2
20200408173545 56 26 4.0 12.0 0.00 0.15 0.15 76 1000.2
20200408173046 56 40 5.0 11.0 0.00 0.15 0.15 76 1000.1
20200408172548 56 24 5.0 12.0 0.00 0.15 0.15 75 1000.1
20200408172045 56 28 4.0 12.0 0.00 0.15 0.15 76 1000.0
20200408171543 56 20 4.0 10.0 0.00 0.15 0.15 75 1000.0
20200408171043 56 26 4.0 10.0 0.00 0.15 0.15 74 1000.0
20200408170544 56 348 5.0 13.0 0.00 0.15 0.15 77 1000.0
20200408170043 56 19 6.0 13.0 0.00 0.15 0.15 73 999.9
20200408165543 57 13 3.0 13.0 0.00 0.15 0.15 74 999.9
20200408165044 57 15 3.0 9.0 0.00 0.15 0.15 78 999.8
20200408164543 56 74 4.0 10.0 0.00 0.15 0.15 79 999.6
20200408164044 55 296 4.0 12.0 0.00 0.15 0.15 78 999.7
20200408163541 55 44 5.0 12.0 0.00 0.15 0.15 79 999.6
20200408163042 55 346 5.0 11.0 0.00 0.15 0.15 79 999.6
20200408162541 55 55 5.0 10.0 0.00 0.15 0.15 80 999.7
20200408162041 55 30 5.0 12.0 0.00 0.15 0.15 79 999.7
20200408161542 55 348 5.0 12.0 0.00 0.15 0.15 80 999.8
20200408161041 55 335 4.0 12.0 0.00 0.15 0.15 79 999.8
20200408160542 55 60 4.0 12.0 0.00 0.15 0.15 79 999.8
20200408160044 55 26 4.0 13.0 0.00 0.15 0.15 79 999.9
20200408155544 55 26 4.0 13.0 0.00 0.15 0.15 80 999.9
20200408155049 55 45 3.0 10.0 0.00 0.15 0.15 80 999.8
20200408154542 54 81 4.0 9.0 0.00 0.15 0.15 81 999.8
20200408154042 54 23 4.0 8.0 0.00 0.15 0.15 81 999.7
20200408153540 54 96 4.0 13.0 0.00 0.15 0.15 81 999.8
20200408153047 54 17 3.0 13.0 0.00 0.15 0.15 82 999.7
20200408152540 53 30 4.0 13.0 0.00 0.15 0.15 84 999.6
20200408152040 53 84 4.0 13.0 0.00 0.15 0.15 83 999.7
20200408151541 53 26 3.0 11.0 0.00 0.15 0.15 84 999.8
20200408151040 52 30 4.0 11.0 0.00 0.15 0.15 85 999.8
20200408150539 52 50 5.0 12.0 0.00 0.15 0.15 85 999.8
20200408150040 52 22 4.0 12.0 0.00 0.15 0.15 85 999.7
20200408145540 52 73 4.0 9.0 0.00 0.15 0.15 87 999.8
20200408145039 52 74 4.0 9.0 0.00 0.15 0.15 86 999.7
20200408144539 52 115 4.0 9.0 0.00 0.15 0.15 87 999.5
20200408144039 52 21 4.0 11.0 0.00 0.15 0.15 88 999.3
20200408143541 51 49 5.0 11.0 0.00 0.15 0.15 89 999.3
20200408143039 51 85 5.0 11.0 0.00 0.15 0.15 89 999.1
20200408142539 51 77 5.0 11.0 0.00 0.15 0.15 90 999.1
20200408142040 50 84 4.0 11.0 0.00 0.15 0.15 91 999.1
20200408141536 50 57 4.0 11.0 0.00 0.15 0.15 92 999.1
20200408141037 50 12 4.0 9.0 0.00 0.15 0.15 93 999.0
20200408140539 50 30 4.0 8.0 0.00 0.15 0.15 93 998.9
20200408140037 50 5 4.0 9.0 0.00 0.15 0.15 94 998.9
20200408135536 50 36 4.0 11.0 0.00 0.15 0.15 94 998.9
20200408135037 49 69 5.0 11.0 0.00 0.15 0.15 94 998.9
20200408134538 49 44 4.0 11.0 0.00 0.15 0.15 94 998.9
20200408134037 49 34 4.0 13.0 0.00 0.15 0.15 94 998.9
20200408133538 49 78 5.0 13.0 0.00 0.15 0.15 94 998.6
20200408133036 49 64 4.0 12.0 0.00 0.15 0.15 95 998.6
20200408132536 50 36 3.0 10.0 0.00 0.15 0.15 95 998.5
20200408132038 50 15 3.0 10.0 0.00 0.15 0.15 95 998.4
20200408131539 50 25 4.0 11.0 0.00 0.15 0.15 95 998.3
20200408131034 50 12 4.0 11.0 0.00 0.15 0.15 94 998.2
20200408130535 50 49 2.0 10.0 0.00 0.15 0.15 95 998.1
20200408130036 50 31 2.0 7.0 0.00 0.15 0.15 95 998.0
20200408125534 50 21 2.0 7.0 0.00 0.15 0.15 95 998.0
20200408125038 50 20 2.0 8.0 0.00 0.15 0.15 95 998.0
20200408124535 50 30 2.0 9.0 0.01 0.15 0.15 95 998.1
20200408124035 50 14 2.0 9.0 0.01 0.15 0.15 95 998.1
20200408123534 50 36 2.0 5.0 0.01 0.15 0.15 95 998.2
20200408123035 50 36 2.0 7.0 0.01 0.15 0.15 95 998.1
20200408122535 51 24 3.0 8.0 0.01 0.15 0.15 95 998.0
20200408122034 51 0 3.0 8.0 0.01 0.15 0.15 95 998.1
20200408121536 51 11 2.0 5.0 0.01 0.15 0.15 95 998.2
20200408121035 51 34 1.0 4.0 0.01 0.15 0.15 95 998.0
20200408120535 51 348 1.0 6.0 0.01 0.15 0.15 95 997.9
20200408120036 51 34 2.0 6.0 0.01 0.15 0.15 95 997.9
20200408115535 51 9 1.0 6.0 0.01 0.15 0.15 95 998.0
20200408115036 51 5 1.0 4.0 0.01 0.15 0.15 95 997.9
20200408114535 51 355 1.0 4.0 0.00 0.14 0.14 95 997.8
20200408114036 51 13 0.0 4.0 0.00 0.14 0.14 95 997.9
20200408113536 51 15 1.0 3.0 0.00 0.14 0.14 95 997.6
20200408113035 51 12 1.0 3.0 0.00 0.14 0.14 95 997.6
20200408112534 51 23 0.0 3.0 0.00 0.14 0.14 95 997.6
20200408112035 51 64 0.0 1.0 0.00 0.14 0.14 95 997.1
20200408111534 51 63 0.0 0.0 0.00 0.14 0.14 95 997.3
20200408111035 51 64 0.0 0.0 0.00 0.14 0.14 95 997.6
20200408110534 51 64 0.0 1.0 0.01 0.14 0.14 95 997.5
20200408110034 51 64 0.0 1.0 0.02 0.14 0.14 95 997.2
20200408105535 50 64 0.0 0.0 0.03 0.14 0.14 95 997.1
20200408105032 50 64 0.0 1.0 0.04 0.14 0.14 95 996.9
20200408104534 50 64 0.0 1.0 0.05 0.14 0.14 95 996.7
20200408104032 50 113 0.0 1.0 0.05 0.14 0.14 95 996.2
20200408103533 51 113 0.0 2.0 0.06 0.14 0.14 95 996.1
20200408103036 50 67 0.0 2.0 0.06 0.14 0.14 95 996.4
20200408102532 50 23 0.0 1.0 0.06 0.14 0.14 95 996.2
20200408102031 50 202 0.0 1.0 0.07 0.14 0.14 94 996.2
20200408101531 50 202 0.0 1.0 0.07 0.14 0.14 94 996.2
20200408101032 50 202 0.0 1.0 0.07 0.14 0.14 94 996.6
20200408100531 50 234 0.0 0.0 0.07 0.13 0.13 94 996.9
20200408100028 50 234 0.0 0.0 0.07 0.12 0.12 94 997.1
20200408095529 50 234 0.0 0.0 0.07 0.11 0.11 94 997.3
20200408095029 50 234 0.0 0.0 0.06 0.10 0.10 94 997.5
20200408094528 50 234 0.0 0.0 0.06 0.09 0.09 94 997.6
20200408094029 50 234 0.0 0.0 0.06 0.09 0.09 94 997.8
20200408093529 50 234 0.0 0.0 0.06 0.08 0.08 94 997.8
20200408093031 50 234 0.0 2.0 0.06 0.08 0.08 94 997.7
20200408092526 50 234 0.0 2.0 0.07 0.08 0.08 94 997.8
20200408092026 50 217 0.0 5.0 0.06 0.07 0.07 93 998.0
20200408091527 50 217 1.0 5.0 0.06 0.07 0.07 93 998.0
20200408091025 50 194 0.0 3.0 0.06 0.07 0.07 93 998.0
20200408090524 50 198 0.0 3.0 0.05 0.06 0.06 93 998.3
20200408090027 50 215 0.0 3.0 0.04 0.05 0.05 93 998.5
20200408085526 50 192 0.0 1.0 0.03 0.04 0.04 93 998.5
20200408085024 50 190 0.0 0.0 0.03 0.04 0.04 92 998.6
20200408084524 50 190 0.0 0.0 0.02 0.03 0.03 92 998.7
20200408084025 50 190 0.0 2.0 0.02 0.03 0.03 92 998.7
20200408083525 50 190 0.0 2.0 0.01 0.02 0.03 92 998.9
20200408083023 50 190 0.0 0.0 0.01 0.02 0.02 92 999.0
20200408082524 50 190 0.0 5.0 0.01 0.01 0.01 92 999.0
20200408082022 50 190 1.0 5.0 0.01 0.01 0.01 92 999.0
20200408081523 50 213 0.0 3.0 0.01 0.01 0.01 92 998.6
20200408081023 50 204 1.0 6.0 0.01 0.01 0.01 91 998.9
20200408080523 50 201 1.0 6.0 0.01 0.01 0.01 91 998.5
20200408080023 50 214 0.0 2.0 0.01 0.01 0.01 91 998.9
20200408075523 50 242 0.0 0.0 0.01 0.01 0.01 91 998.9
20200408075022 50 242 0.0 0.0 0.01 0.01 0.01 90 998.7
20200408074523 50 242 0.0 0.0 0.01 0.01 0.01 90 998.6
20200408074022 50 242 0.0 0.0 0.01 0.01 0.01 90 998.9
20200408073520 50 242 0.0 0.0 0.01 0.01 0.01 90 999.1
20200408073020 50 242 0.0 1.0 0.01 0.01 0.01 90 998.5
20200408072523 50 292 0.0 2.0 0.00 0.00 0.00 89 999.5
20200408072023 50 201 0.0 4.0 0.00 0.00 0.00 89 998.7
20200408071519 50 202 1.0 4.0 0.00 0.00 0.00 89 998.5
20200408071021 50 191 1.0 3.0 0.00 0.00 0.00 89 998.9
20200408070522 50 173 0.0 3.0 0.00 0.00 0.00 89 999.2
20200408070020 50 184 0.0 2.0 0.00 0.00 0.00 89 999.6
20200408065520 50 181 0.0 0.0 0.00 0.00 0.00 89 999.9
20200408065018 50 159 0.0 0.0 0.00 0.00 0.00 89 1000.1
20200408064519 50 159 0.0 0.0 0.00 0.00 0.00 89 1000.2
20200408064018 50 159 0.0 1.0 0.00 0.00 0.00 89 1000.1
20200408063519 50 160 0.0 1.0 0.00 0.00 0.00 89 1000.3
20200408063019 50 171 0.0 0.0 0.00 0.00 0.00 89 1000.4
20200408062516 50 171 0.0 0.0 0.00 0.00 0.00 89 1000.7
20200408062017 50 171 0.0 0.0 0.00 0.00 0.00 89 1000.9
20200408061516 50 171 0.0 0.0 0.00 0.00 0.00 88 1000.9
20200408061016 50 171 0.0 0.0 0.00 0.00 0.00 88 1001.0
20200408060516 50 171 0.0 0.0 0.00 0.00 0.00 88 1001.2
20200408060014 51 171 0.0 0.0 0.00 0.00 0.00 88 1001.2
20200408055515 51 171 0.0 0.0 0.00 0.00 0.00 88 1001.2
20200408055017 51 171 0.0 0.0 0.00 0.00 0.00 88 1001.5
20200408054514 51 171 0.0 4.0 0.00 0.00 0.00 88 1001.9
20200408054012 51 171 1.0 4.0 0.00 0.00 0.00 88 1002.0
20200408053512 51 217 1.0 5.0 0.00 0.00 0.00 88 1002.0
20200408053012 51 200 1.0 5.0 0.00 0.00 0.00 87 1001.9
20200408052513 51 219 1.0 4.0 0.00 0.00 0.00 87 1001.9
20200408052012 51 184 1.0 4.0 0.00 0.00 0.00 87 1001.9
20200408051513 51 213 2.0 8.0 0.00 0.00 0.00 87 1002.2
20200408051011 51 169 3.0 8.0 0.00 0.00 0.00 87 1002.2
20200408050512 51 186 2.0 6.0 0.00 0.00 0.00 87 1002.5
20200408050010 51 200 2.0 6.0 0.00 0.00 0.00 87 1002.5
20200408045512 51 220 4.0 7.0 0.00 0.00 0.00 87 1002.7
20200408045012 51 227 4.0 7.0 0.00 0.00 0.00 87 1002.8
20200408044512 51 222 3.0 7.0 0.00 0.00 0.00 86 1002.8
20200408044010 51 221 2.0 6.0 0.00 0.00 0.00 86 1003.0
20200408043511 51 184 2.0 6.0 0.00 0.00 0.00 86 1003.0
20200408043010 51 213 2.0 5.0 0.00 0.00 0.00 86 1003.2
20200408042511 51 227 3.0 8.0 0.00 0.00 0.00 86 1003.4
20200408042011 51 213 5.0 8.0 0.00 0.00 0.00 86 1003.5
20200408041510 51 228 4.0 8.0 0.00 0.00 0.00 86 1003.6
20200408041009 51 196 3.0 7.0 0.00 0.00 0.00 86 1003.7
20200408040506 51 234 2.0 7.0 0.00 0.00 0.00 86 1003.9
20200408040005 51 234 2.0 7.0 0.00 0.00 0.00 86 1003.9
20200408035504 51 173 2.0 7.0 0.00 0.00 0.00 86 1004.1
20200408035004 51 227 1.0 7.0 0.00 0.00 0.00 86 1004.3
20200408034503 51 224 1.0 5.0 0.00 0.00 0.00 86 1004.2
20200408034003 51 246 2.0 5.0 0.00 0.00 0.00 85 1004.2
20200408033502 51 206 2.0 6.0 0.00 0.00 0.00 85 1004.2
20200408033004 51 229 1.0 6.0 0.00 0.00 0.00 85 1004.3
20200408032503 51 215 1.0 5.0 0.00 0.00 0.00 85 1004.4
20200408032001 51 211 1.0 6.0 0.00 0.00 0.00 85 1004.6
20200408031501 51 215 3.0 7.0 0.00 0.00 0.00 85 1004.7
20200408030958 51 221 3.0 7.0 0.00 0.00 0.00 85 1004.7
20200408030459 51 200 2.0 8.0 0.00 0.00 0.00 85 1004.8
20200408030000 51 225 2.0 8.0 0.00 0.00 0.00 84 1004.9
20200408025458 51 239 1.0 8.0 0.00 0.00 0.00 84 1005.0
20200408025000 51 261 1.0 7.0 0.00 0.00 0.00 84 1005.2
20200408024500 51 230 1.0 7.0 0.00 0.00 0.00 84 1005.3
20200408023958 51 152 1.0 8.0 0.00 0.00 0.00 84 1005.3
20200408023458 51 226 1.0 8.0 0.00 0.00 0.00 84 1005.3
20200408022958 51 192 1.0 7.0 0.00 0.00 0.00 84 1005.3
20200408022458 51 206 1.0 7.0 0.00 0.00 0.00 84 1005.5
20200408021959 51 244 1.0 6.0 0.00 0.00 0.00 84 1005.6
20200408021500 51 192 1.0 6.0 0.00 0.00 0.00 84 1005.7
20200408021000 51 191 1.0 5.0 0.00 0.00 0.00 84 1005.7
20200408020459 51 195 1.0 6.0 0.00 0.00 0.00 83 1005.8
20200408020002 51 186 1.0 6.0 0.00 0.00 0.00 83 1005.9
20200408015459 51 234 0.0 6.0 0.00 0.00 0.00 83 1006.0
20200408014958 51 207 1.0 6.0 0.00 0.00 0.00 83 1005.9
20200408014457 51 258 1.0 6.0 0.00 0.00 0.00 82 1006.0
20200408013956 51 198 1.0 7.0 0.00 0.00 0.00 82 1006.1
20200408013456 51 233 1.0 7.0 0.00 0.00 0.00 82 1006.1
20200408012958 51 217 1.0 5.0 0.00 0.00 0.00 82 1006.2
20200408012457 51 230 1.0 7.0 0.00 0.00 0.00 81 1006.2
20200408011956 51 225 1.0 7.0 0.00 0.00 0.00 81 1006.3
20200408011503 51 205 1.0 8.0 0.00 0.00 0.00 80 1006.3
20200408010958 51 198 2.0 8.0 0.00 0.00 0.00 80 1006.4
20200408010456 51 239 3.0 8.0 0.00 0.00 0.00 79 1006.5
20200408005957 51 248 3.0 7.0 0.00 0.00 0.00 79 1006.7
20200408005456 51 209 4.0 8.0 0.00 0.00 0.00 79 1006.7
20200408004954 51 215 4.0 8.0 0.00 0.00 0.00 78 1006.5
20200408004455 51 194 3.0 8.0 0.00 0.00 0.00 77 1006.6
20200408004001 51 223 3.0 8.0 0.00 0.00 0.00 76 1006.8
20200408003459 51 206 4.0 8.0 0.00 0.00 0.00 75 1006.8
20200408002954 51 212 4.0 8.0 0.00 0.00 0.00 73 1006.7
20200408002456 51 233 5.0 11.0 0.00 0.00 0.00 72 1006.7
20200408002000 51 224 4.0 11.0 0.00 0.00 0.00 71 1006.9
20200408001506 51 254 3.0 10.0 0.00 0.00 0.00 70 1006.8
20200408000957 51 192 4.0 10.0 0.00 0.00 0.00 69 1006.6
20200408000455 51 207 4.0 10.0 0.00 0.00 0.00 68 1006.7
20200407235956 51 159 3.0 8.0 0.00 0.00 0.00 67 1006.7
20200407235455 51 188 4.0 8.0 0.00 0.00 0.00 66 1006.8
20200407234951 51 199 3.0 8.0 0.00 0.00 0.00 66 1006.8
20200407234450 51 229 3.0 8.0 0.00 0.00 0.00 65 1006.9
20200407233950 52 197 4.0 9.0 0.00 0.00 0.00 64 1006.8
20200407233451 52 230 5.0 9.0 0.00 0.00 0.00 63 1006.8
20200407232950 52 201 4.0 9.0 0.00 0.00 0.00 62 1006.8
20200407232450 52 169 4.0 10.0 0.00 0.00 0.00 62 1006.8
20200407231951 52 174 5.0 10.0 0.00 0.00 0.00 62 1006.7
20200407231447 52 201 5.0 10.0 0.00 0.00 0.00 61 1006.8
20200407230949 53 198 5.0 10.0 0.00 0.00 0.00 60 1006.8
20200407230452 53 193 5.0 10.0 0.00 0.00 0.00 59 1006.9
20200407225949 53 219 5.0 10.0 0.00 0.00 0.00 57 1006.9
20200407225447 53 193 5.0 10.0 0.00 0.00 0.00 57 1006.9
20200407224949 53 216 6.0 12.0 0.00 0.00 0.00 55 1007.0
20200407224447 53 227 6.0 12.0 0.00 0.00 0.00 53 1007.1
20200407223948 54 234 6.0 12.0 0.00 0.00 0.00 51 1007.1
20200407223449 54 188 6.0 13.0 0.00 0.00 0.00 50 1007.2
20200407222952 55 210 6.0 13.0 0.00 0.00 0.00 47 1007.2
20200407222447 55 192 6.0 11.0 0.00 0.00 0.00 46 1007.2